Station BRND1 - 8555889 - Brandywine Shoal Light, DE Image indicating link to RSS feed of recent meteorological observations for station BRND1


Conditions at BRND1 as of
(8:30 am EDT)
1230 GMT on 05/20/2024:
     

Click on the graph icon in the table below to see a time series plot of the last five days of that observation.

5-day plot - Wind Direction Wind Direction (WDIR): NE ( 50 deg true )
5-day plot - Wind Speed Wind Speed (WSPD): 8.0 kts
5-day plot - Wind Gust Wind Gust (GST): 9.9 kts
5-day plot - Atmospheric Pressure Atmospheric Pressure (PRES):30.09 in
5-day plot - Air Temperature Air Temperature (ATMP): 56.1 °F
5-day plot - Wind Speed at 10 Meters Wind Speed at 10 meters (WSPD10M): 7.8 kts
5-day plot - Wind Speed at 20 Meters Wind Speed at 20 meters (WSPD20M): 7.8 kts
5-day plot -  Wind Speed, Wind Gust and Atmospheric Pressure Combined plot of Wind Speed, Gust, and Air Pressure
NOS Water Level Observation Network Water Level
Previous observations
TIME
(EDT)
5-day plot - Wind Direction
WDIR
 
5-day plot - Wind Speed
WSPD
kts
5-day plot - Wind Gust
GST
kts
5-day plot - Wave Height
WVHT
ft
5-day plot - Dominant Wave Period
DPD
sec
5-day plot - Average Wave Period
APD
sec
5-day plot - Mean Wave Direction
MWD
 
5-day plot - Atmospheric Pressure
PRES
in
5-day plot - Pressure Tendency
PTDY
in
5-day plot - Air Temperature
ATMP
°F
5-day plot - Water Temperature
WTMP
°F
5-day plot - Dew Point
DEWP
°F
5-day plot - Salinity
SAL
psu
5-day plot - Visibility
VIS
nmi
5-day plot - Tide (above MLLW)
TIDE
ft
2024-05-20 08:24 am NE 8.0 9.9----30.08- 56.3-----
2024-05-20 08:18 am NE 7.0 9.9----30.08- 56.1-----
2024-05-20 08:12 am NE 8.9 9.9----30.08- 56.1-----
2024-05-20 08:06 amNNE 8.9 11.1----30.08- 56.1-----
2024-05-20 08:00 amNNE 7.0 8.9----30.07+0.06 56.1-----
2024-05-20 07:54 amNNE 8.0 8.9----30.07- 56.1-----
2024-05-20 07:48 am NE 8.0 8.9----30.07- 55.9-----
2024-05-20 07:42 amENE 8.0 8.9----30.06- 55.8-----
2024-05-20 07:36 amENE 7.0 8.9----30.06- 55.8-----
2024-05-20 07:30 amENE 8.0 8.9----30.06- 55.8-----
2024-05-20 07:24 amENE 8.0 8.9----30.05- 55.8-----
2024-05-20 07:18 amENE 7.0 8.0------------
2024-05-20 07:12 amENE 8.0 9.9----30.05- 55.6-----
2024-05-20 07:06 amENE 8.0 9.9----30.04- 55.8-----
2024-05-20 07:00 am E 8.0 8.9----30.04+0.04 55.6-----
2024-05-20 06:54 am E 9.9 12.0----30.04- 55.8-----
2024-05-20 06:48 am E 11.1 12.0----30.04- 55.6-----
2024-05-20 06:42 am E 11.1 13.0----30.04- 55.4-----
2024-05-20 06:36 amENE 12.0 14.0----30.04- 55.8-----
2024-05-20 06:30 amENE 12.0 13.0----30.03- 55.9-----
2024-05-20 06:24 amENE 11.1 13.0----30.03- 55.9-----
2024-05-20 06:18 am NE 11.1 14.0----30.03- 56.1-----
2024-05-20 06:12 amENE 9.9 13.0----30.03- 56.1-----
2024-05-20 06:06 amENE 8.9 13.0----30.03- 56.1-----
2024-05-20 06:00 amENE 9.9 13.0----30.03+0.01 55.9-----
2024-05-20 05:54 am E 11.1 13.0----30.03- 55.9-----
2024-05-20 05:48 am E 12.0 14.0----30.03- 55.8-----
2024-05-20 05:42 amENE 11.1 12.0----30.03- 56.1-----
2024-05-20 05:36 amENE 9.9 11.1----30.03- 56.1-----
2024-05-20 05:30 am NE 11.1 12.0----30.03- 56.1-----
2024-05-20 05:24 am NE 9.9 12.0----30.02- 56.1-----
2024-05-20 05:18 am NE 11.1 12.0----30.02- 56.3-----
2024-05-20 05:12 am NE 9.9 12.0----30.02- 56.5-----
2024-05-20 05:06 am NE 9.9 11.1----30.02- 56.5-----
2024-05-20 05:00 amENE 8.9 9.9----30.02-0.02 56.5-----
2024-05-20 04:54 am NE 8.9 9.9----30.01- 56.3-----
2024-05-20 04:48 amENE 8.9 12.0----30.01- 56.3-----
2024-05-20 04:42 amENE 12.0 14.0----30.01- 56.1-----
2024-05-20 04:36 amENE 11.1 12.0----30.01- 56.5-----
2024-05-20 04:30 amENE 9.9 11.1----30.01- 56.3-----
2024-05-20 04:24 amENE 8.0 8.9----30.01- 56.3-----
2024-05-20 04:18 amENE 8.9 9.9----30.01- 56.3-----
2024-05-20 04:12 am E 8.9 9.9----30.01- 56.3-----
2024-05-20 04:06 amENE 8.0 9.9----30.01- 56.5-----
2024-05-20 04:00 amENE 8.0 8.9----30.01-0.03 56.5-----
2024-05-20 03:54 amENE 6.0 8.0----30.01- 56.5-----
2024-05-20 03:48 am E 7.0 8.0----30.01- 56.5-----
2024-05-20 03:42 am E 8.0 8.9----30.01- 56.5-----
2024-05-20 03:36 am E 7.0 8.9----30.01- 56.7-----
2024-05-20 03:30 am E 8.0 8.9----30.01- 56.5-----
2024-05-20 03:24 am E 7.0 8.9----30.01- 56.7-----
2024-05-20 03:18 amENE 8.9 9.9----30.01- 56.7-----
2024-05-20 03:12 amENE 8.0 8.9----30.01- 56.7-----
2024-05-20 03:06 amENE 6.0 8.0----30.02- 56.7-----
2024-05-20 03:00 am NE 6.0 7.0----30.02-0.03 56.5-----
2024-05-20 02:54 amENE 5.1 5.1----30.02- 56.5-----
2024-05-20 02:48 amENE 5.1 5.1----30.02- 56.3-----
2024-05-20 02:42 amENE 4.1 5.1----30.02- 56.3-----
2024-05-20 02:36 am NE 4.1 5.1----30.03- 56.3-----
2024-05-20 02:30 am NE 2.9 5.1----30.03- 56.3-----
2024-05-20 02:24 amENE 4.1 5.1----30.03- 56.1-----
2024-05-20 02:18 amENE 4.1 6.0----30.03-------
2024-05-20 02:12 am NE 5.1 6.0----30.03- 56.1-----
2024-05-20 02:06 am NE 4.1 4.1----30.04- 56.1-----
2024-05-20 02:00 am NE 4.1 5.1----30.04-0.01 56.1-----
2024-05-20 01:54 amENE 5.1 6.0----30.04- 56.1-----
2024-05-20 01:48 am NE 5.1 5.1----30.04- 56.1-----
2024-05-20 01:42 amENE 2.9 4.1----30.04- 55.9-----
2024-05-20 01:36 amENE 2.9 4.1----30.04- 55.8-----
2024-05-20 01:30 amENE 2.9 5.1----30.04- 55.9-----
2024-05-20 01:24 amENE 5.1 6.0----30.04- 55.8-----
2024-05-20 01:18 am-------30.04-------
2024-05-20 01:12 am-------30.04-------
2024-05-20 01:06 am-------30.04-------
2024-05-20 01:00 am E 12.0 13.0----30.04+0.00 55.8-----
2024-05-20 12:54 am E 9.9 12.0----30.04- 56.1-----
2024-05-20 12:48 amESE 8.9 9.9----30.04- 56.3-----
2024-05-20 12:42 amESE 8.9 9.9----30.04- 56.5-----
2024-05-20 12:36 amESE 8.9 9.9----30.04- 56.5-----
2024-05-20 12:30 amESE 8.9 9.9----30.04- 56.5-----
2024-05-20 12:24 am E 7.0 8.0----30.04- 56.7-----
2024-05-20 12:18 am E 6.0 8.0----30.04- 56.7-----
2024-05-20 12:12 am E 6.0 8.0----30.05- 56.8-----
2024-05-20 12:06 am E 6.0 8.0----30.05- 56.7-----
2024-05-20 12:00 amESE 6.0 7.0----30.04+0.03 56.5-----
2024-05-19 11:54 pmESE 5.1 6.0----30.05- 56.5-----
2024-05-19 11:48 pmESE 5.1 7.0----30.05- 56.5-----
2024-05-19 11:42 pmESE 6.0 7.0----30.05- 56.5-----
2024-05-19 11:36 pmESE 6.0 8.0----30.05- 56.5-----
2024-05-19 11:30 pmESE 6.0 7.0----30.05- 56.5-----
2024-05-19 11:24 pmESE 7.0 8.0----30.04- 56.5-----
2024-05-19 11:18 pm E 7.0 8.0----30.04-------
2024-05-19 11:12 pm E 7.0 8.9----30.04-------
2024-05-19 11:06 pm E 7.0 8.9----30.05-------
2024-05-19 11:00 pm E 8.0 9.9----30.05+0.06 56.8-----
2024-05-19 10:54 pm E 7.0 8.0----30.05- 56.7-----
2024-05-19 10:48 pmESE 6.0 7.0----30.05- 56.8-----
2024-05-19 10:42 pmESE 6.0 8.0----30.05- 56.7-----
2024-05-19 10:36 pmESE 7.0 8.0----30.05- 56.7-----
2024-05-19 10:30 pmESE 8.0 8.9----30.04- 56.7-----
2024-05-19 10:24 pmESE 8.9 11.1----30.04- 56.7-----
2024-05-19 10:18 pmESE 9.9 11.1----30.04- 56.7-----
2024-05-19 10:12 pmESE 8.9 9.9----30.04- 56.5-----
2024-05-19 10:06 pmESE 8.9 11.1----30.04- 56.7-----
2024-05-19 10:00 pmESE 9.9 12.0----30.04- 56.5-----
2024-05-19 09:54 pmESE 9.9 12.0----30.03- 56.7-----
2024-05-19 09:48 pmESE 11.1 13.0----30.03- 56.5-----
2024-05-19 09:42 pmESE 11.1 12.0----30.03- 56.5-----
2024-05-19 09:36 pmESE 11.1 12.0----30.03- 56.5-----
2024-05-19 09:30 pmESE 9.9 12.0----30.03-------
2024-05-19 09:24 pmESE 9.9 11.1----30.02-------
2024-05-19 09:18 pmESE 9.9 11.1----30.02-------
2024-05-19 09:12 pmESE 11.1 12.0----30.02-------
2024-05-19 09:06 pmESE 11.1 12.0----30.02-------
2024-05-19 09:00 pm SE 12.0 13.0----30.01+0.04------
2024-05-19 08:54 pm SE 12.0 13.0----30.01-------
2024-05-19 08:48 pm SE 12.0 14.0----30.01- 57.0-----
2024-05-19 08:42 pm SE 12.0 13.0----30.01- 57.0-----
2024-05-19 08:36 pmSSE 11.1 12.0----30.01- 57.2-----
2024-05-19 08:30 pmSSE 12.0 13.0----30.01- 57.6-----
2024-05-19 08:24 pmSSE 12.0 12.0----30.00- 57.6-----
2024-05-19 08:18 pm SE 9.9 12.0----30.00- 57.9-----
2024-05-19 08:12 pm SE 9.9 11.1----30.00- 58.1-----
2024-05-19 08:06 pm SE 11.1 12.0----29.99- 58.3-----
2024-05-19 08:00 pm SE 9.9 11.1----29.99+0.01------
2024-05-19 07:54 pmSSE 9.9 11.1----29.98-------
2024-05-19 07:48 pmSSE 9.9 9.9------------
2024-05-19 07:42 pmSSE 8.9 9.9------------
2024-05-19 07:36 pm SE 8.9 11.1------------
2024-05-19 07:30 pmSSE 9.9 11.1----29.98- 59.0-----
2024-05-19 07:24 pmSSE 11.1 12.0----29.99- 59.0-----
2024-05-19 07:00 pmSSE 9.9 11.1------------
2024-05-19 06:54 pmSSE 11.1 12.0------------
2024-05-19 06:48 pmSSE 9.9 11.1----29.99-------
2024-05-19 06:42 pmSSE 9.9 11.1----29.98-------
2024-05-19 06:36 pmSSE 11.1 12.0----29.98-------
2024-05-19 06:30 pmSSE 9.9 11.1----29.98-------
2024-05-19 06:24 pmSSE 11.1 12.0----29.98-------
2024-05-19 06:18 pm-------29.98- 58.8-----
2024-05-19 06:12 pm-------29.98- 58.8-----
2024-05-19 06:06 pm-------29.98- 58.6-----
2024-05-19 06:00 pm S 9.9 9.9----29.98+0.00 58.8-----
2024-05-19 05:54 pmSSE 9.9 9.9----29.98- 58.8-----
2024-05-19 05:48 pmSSE 8.9 9.9----29.98- 58.8-----
2024-05-19 05:42 pmSSE 9.9 11.1----29.98- 58.8-----
2024-05-19 05:36 pm S 9.9 11.1----29.98- 58.8-----
2024-05-19 05:30 pm S 9.9 11.1----29.98- 58.8-----
2024-05-19 05:24 pm S 9.9 11.1----29.98- 58.8-----
2024-05-19 05:18 pm S 11.1 11.1----29.98- 59.0-----
2024-05-19 05:12 pm S 9.9 11.1----29.98- 59.0-----
2024-05-19 05:06 pm S 9.9 11.1----29.98- 59.0-----
2024-05-19 05:00 pm S 9.9 12.0----29.98+0.00 59.2-----
2024-05-19 04:54 pmSSE 11.1 12.0----29.98- 59.0-----
2024-05-19 04:48 pmSSE 12.0 12.0----29.98- 59.0-----
2024-05-19 04:42 pmSSE 12.0 12.0----29.98- 59.0-----
2024-05-19 04:36 pmSSE 11.1 12.0----29.98- 59.2-----
2024-05-19 04:30 pmSSE 11.1 12.0----29.98- 59.2-----
2024-05-19 04:24 pm S 12.0 13.0----29.98- 59.2-----
2024-05-19 04:18 pmSSE 13.0 14.0----29.98- 59.4-----
2024-05-19 04:12 pmSSE 13.0 14.0----29.98- 59.5-----
2024-05-19 04:06 pmSSE 13.0 15.0----29.98- 59.7-----
2024-05-19 04:00 pmSSE 13.0 14.0----29.98-0.03------
2024-05-19 03:54 pmSSE 12.0 14.0----29.98-------
2024-05-19 03:48 pmSSE 13.0 14.0----29.98-------
2024-05-19 03:42 pm S 13.0 14.0----29.98-------
2024-05-19 03:36 pm S 13.0 14.0----29.98-------
2024-05-19 03:30 pm S 13.0 14.0----29.98- 60.1-----
2024-05-19 03:24 pm S 12.0 14.0----29.98- 60.1-----
2024-05-19 03:18 pmSSE 12.0 13.0----29.98- 60.3-----
2024-05-19 03:12 pm S 11.1 12.0----29.98- 60.4-----
2024-05-19 03:06 pm S 11.1 13.0----29.98- 60.6-----
2024-05-19 03:00 pm S 11.1 12.0----29.98-0.02------
2024-05-19 02:54 pm S 9.9 11.1----29.98-------
2024-05-19 02:48 pm S 9.9 11.1----29.98- 61.3-----
2024-05-19 02:42 pm S 8.0 8.9----29.98- 62.2-----
2024-05-19 02:36 pm S 7.0 7.0----29.98- 62.8-----
2024-05-19 02:30 pmSSE 6.0 6.0----29.98- 63.3-----
2024-05-19 02:24 pm S 6.0 7.0----29.98- 63.0-----
2024-05-19 02:18 pm S 6.0 8.0----29.98- 62.8-----
2024-05-19 02:12 pm S 6.0 8.0----29.98- 61.9-----
2024-05-19 02:06 pm S 6.0 7.0----29.99- 62.2-----
2024-05-19 02:00 pm S 6.0 8.0----29.99-0.02 62.4-----
2024-05-19 01:54 pm S 7.0 8.0----29.99- 61.9-----
2024-05-19 01:48 pm S 8.0 8.9----29.99- 61.7-----
2024-05-19 01:42 pm S 7.0 8.0----29.99- 61.7-----
2024-05-19 01:36 pm S 6.0 6.0----29.99- 63.0-----
2024-05-19 01:30 pmSSE 5.1 5.1----30.00- 63.0-----
2024-05-19 01:24 pm SE 5.1 6.0----30.00- 62.8-----
2024-05-19 01:18 pmESE 6.0 7.0----30.00-------
2024-05-19 01:12 pmESE 6.0 7.0----30.00-------
2024-05-19 01:06 pmESE 6.0 7.0----30.00-------
2024-05-19 01:00 pmESE 7.0 7.0----30.01+0.00------
2024-05-19 12:54 pm E 6.0 7.0----30.01-------
2024-05-19 12:48 pmESE 7.0 8.0----30.01- 61.9-----
2024-05-19 12:42 pmESE 6.0 8.0----30.01- 61.7-----
2024-05-19 12:36 pmESE 8.0 8.9----30.01- 61.7-----
2024-05-19 12:30 pmESE 8.0 8.9----30.01- 61.7-----
2024-05-19 12:24 pmESE 7.0 8.9----30.01- 61.5-----
2024-05-19 12:18 pmESE 8.0 8.9----30.01- 61.5-----
2024-05-19 12:12 pmESE 6.0 7.0----30.01- 62.6-----
2024-05-19 12:06 pmENE 5.1 5.1----30.01- 62.8-----
2024-05-19 12:00 pmENE 5.1 6.0----30.01+0.00 62.8-----
2024-05-19 11:54 amENE 6.0 6.0----30.01- 62.6-----
2024-05-19 11:48 amENE 6.0 8.0----30.00- 62.6-----
2024-05-19 11:42 amENE 8.0 8.9----30.00- 62.6-----
2024-05-19 11:36 amENE 8.0 8.9----30.01- 62.2-----
2024-05-19 11:30 amENE 8.0 8.9----30.01- 62.1-----
2024-05-19 11:24 amENE 8.9 8.9----30.01- 62.1-----
2024-05-19 11:18 am-------30.01- 61.9-----
2024-05-19 11:12 am-------30.01- 62.1-----
2024-05-19 11:06 am-------30.01- 62.2-----
2024-05-19 11:00 am-------30.01+0.01 62.1-----
2024-05-19 10:54 am-------30.00- 61.9-----
2024-05-19 10:48 am-------30.00- 61.5-----
2024-05-19 10:42 am-------30.00- 61.3-----
2024-05-19 10:36 am-------30.00- 61.3-----
2024-05-19 10:30 amENE 11.1 12.0----30.00- 61.2-----
2024-05-19 10:24 amENE 11.1 12.0----30.00- 61.2-----
2024-05-19 10:18 amENE 8.0 8.9----30.00- 61.0-----
2024-05-19 10:12 am NE 7.0 8.0----30.00- 61.2-----
2024-05-19 10:06 am NE 7.0 8.0----30.00- 61.0-----
2024-05-19 10:00 am NE 7.0 8.0----30.00+0.02------
2024-05-19 09:54 am NE 7.0 8.0----30.00-------
2024-05-19 09:48 am-------30.00- 60.6-----
2024-05-19 09:42 am-------29.99- 60.6-----
2024-05-19 09:36 am-------29.99- 60.6-----
2024-05-19 09:30 am NE 8.0 8.9----29.99-------
2024-05-19 09:24 amNNE 7.0 8.0----29.99-------
2024-05-19 09:18 amNNE 8.0 8.9----30.00-------
2024-05-19 09:12 amNNE 8.9 9.9----30.00-------
2024-05-19 09:06 amNNE 8.9 8.9----30.00-------
2024-05-19 09:00 amNNE 8.0 8.9----30.00+0.03------
2024-05-19 08:54 amNNE 8.0 8.9----30.00-------